STARLINK-3642, 51989

Orbit data source: Space-Track

STARLINK-3642, 51989 is a payload satellite owned by SpaceX/Seattle (US) in LEO that was launched on Wed, 09 Mar 2022 UTC via an FALCON 9 launch vehicle from the Air Force Eastern Test Range (AFETR). Payload-class satellites include a variety of spacecraft equipped with specific instruments for various scientific and technological missions. These include communications satellites like Starlink; space stations such as the ISS; scientific satellites like the Hubble; Earth observation satellites from companies like Planet Labs, Umbra, and HawkEye 360; GPS; miniature CubeSats for education and research; and military/defense satellites.

Loading next visibility...
Identifier
51989, 2022-025AK
Orbit
LEO
Country
Flag of USUS
Related business
Manufacturer
SpaceX/Seattle
Mission
Operational Commercial Communications
Bus & Motor
STARLINK, Unknown motor
Mass
297 kg wet, ~275 kg dry
Launch date (UTC)
2022-03-09 (4 years ago)
Launch vehicle
FALCON 9
Launch site
Air Force Eastern Test Range (AFETR)
Object type
Payload
Rocket body
Debris
Shape & HBR
Box + 1 Pan, 10.1 m
Radar Cross Section
13.562 m², Large (>1 m²)

Expand to show TLE details & history
Last TLE update: 20 hours ago

TLE from 20 hours ago
0 STARLINK-3642
1 51989U 22025AK  25346.60531827 -.00000119  00000-0  10619-4 0  9998
2 51989  53.2190  70.0604 0001427 100.2462 259.8691 15.08833057207919
Epoch: 2025-12-12T14:31Z
TLE epoch observation values (Epoch: 2025-12-12T14:31:39.498Z)
Latitude
-0.00004°
Longitude
130.60126°
Altitude
540.836 km
Speed
7.593 km/s
True Right ascension
04h 40m 14s
True Declination
0° 00' 00"
Sunlit
Object was in full shadow at epoch
Visualization orbit readout
Latitude
Unknown
Longitude
Unknown
Altitude
Unknown
Speed
Unknown
Apparent Right ascension
Unknown
Apparent Declination
Unknown
Sunlit
N/A
Visualization observer readout
Local Sidereal Time
09:16:58
Azimuth
Unknown
Elevation
Unknown
Doppler factor
Unknown
Orbital elements
Apogee altitude
540.997 km
Perigee altitude
539.022 km
Semi-major axis
6,918.146 km
Eccentricity
0.00014
Inclination
53.219°
RAAN
70.0604°
Arg. of periapsis
100.2462°
True anomaly
259.853°
Mean anomaly
259.8691°
Eccentric anomaly
259.86105°
Mean motion
3.77189 °/min
Orbital period
95.44 mins
BSTAR
0.000010619
Loading maneuver chart data...
Computing Atmospheric mass density...
Loading historical data...
Loading historical data...
Loading historical data...
Loading historical data...
Loading historical data...
Loading historical data...
Loading historical data...

Documentation

Showing up to 5 results
|